ProjectID,Date,Electric Generation,Electric Utility Import,Facility Electric Load
,YYYY-MM-DD,kW,kW,kW
330,2016-05-01,0.0,,0.0
330,2016-05-02,0.0,,0.0
330,2016-05-03,0.0,,0.0
330,2016-05-04,0.0,,0.0
330,2016-05-05,0.0,,0.0
330,2016-05-06,0.0,,0.0
330,2016-05-07,0.0,,0.0
330,2016-05-08,0.0,,0.0
330,2016-05-09,0.0,,0.0
330,2016-05-10,0.0,,0.0
330,2016-05-11,0.0,,0.0
330,2016-05-12,0.0,,0.0
330,2016-05-13,62.0,,62.0
330,2016-05-14,66.75,,66.75
330,2016-05-15,88.0,,88.0
330,2016-05-16,112.66666666666667,,112.66666666666667
330,2016-05-17,41.5,,41.5
330,2016-05-18,117.75,,117.75
330,2016-05-19,100.375,,100.375
330,2016-05-20,147.95833333333334,,147.95833333333334
330,2016-05-21,64.625,,64.625
330,2016-05-22,69.66666666666667,,69.66666666666667
330,2016-05-23,160.5,,160.5
330,2016-05-24,171.45833333333334,,171.45833333333334
330,2016-05-25,125.54166666666667,,125.54166666666667
330,2016-05-26,119.20833333333333,,119.20833333333333
330,2016-05-27,121.83333333333333,,121.83333333333333
330,2016-05-28,155.04166666666666,,155.04166666666666
330,2016-05-29,93.875,,93.875
330,2016-05-30,157.66666666666666,,157.66666666666666
330,2016-05-31,166.0,,166.0
330,2016-06-01,163.04166666666666,,163.04166666666666
330,2016-06-02,70.83333333333333,,70.83333333333333
330,2016-06-03,153.70833333333334,,153.70833333333334
330,2016-06-04,156.0,,156.0
330,2016-06-05,43.291666666666664,,43.291666666666664
330,2016-06-06,159.54166666666666,,159.54166666666666
330,2016-06-07,112.625,,112.625
330,2016-06-08,75.0,,75.0
330,2016-06-09,166.79166666666666,,166.79166666666666
330,2016-06-10,174.54166666666666,,174.54166666666666
330,2016-06-11,104.54166666666667,,104.54166666666667
330,2016-06-12,113.41666666666667,,113.41666666666667
330,2016-06-13,73.79166666666667,,73.79166666666667
330,2016-06-14,185.66666666666666,,185.66666666666666
330,2016-06-15,161.0,,161.0
330,2016-06-16,148.08333333333334,,148.08333333333334
330,2016-06-17,173.45833333333334,,173.45833333333334
330,2016-06-18,174.0,,174.0
330,2016-06-19,163.04166666666666,,163.04166666666666
330,2016-06-20,145.04166666666666,,145.04166666666666
330,2016-06-21,162.66666666666666,,162.66666666666666
330,2016-06-22,144.66666666666666,,144.66666666666666
330,2016-06-23,124.83333333333333,,124.83333333333333
330,2016-06-24,180.625,,180.625
330,2016-06-25,165.08333333333334,,165.08333333333334
330,2016-06-26,167.08333333333334,,167.08333333333334
330,2016-06-27,92.95833333333333,,92.95833333333333
330,2016-06-28,120.08333333333333,,120.08333333333333
330,2016-06-29,121.75,,121.75
330,2016-06-30,157.91666666666666,,157.91666666666666
330,2016-07-01,89.25,,89.25
330,2016-07-02,155.125,,155.125
330,2016-07-03,128.29166666666666,,128.29166666666666
330,2016-07-04,171.04166666666666,,171.04166666666666
330,2016-07-05,123.16666666666667,,123.16666666666667
330,2016-07-06,128.0,,128.0
330,2016-07-07,112.79166666666667,,112.79166666666667
330,2016-07-08,106.0,,106.0
330,2016-07-09,106.41666666666667,,106.41666666666667
330,2016-07-10,89.0,,89.0
330,2016-07-11,161.04166666666666,,161.04166666666666
330,2016-07-12,128.25,,128.25
330,2016-07-13,126.91666666666667,,126.91666666666667
330,2016-07-14,131.33333333333334,,131.33333333333334
330,2016-07-15,114.625,,114.625
330,2016-07-16,136.20833333333334,,136.20833333333334
330,2016-07-17,132.75,,132.75
330,2016-07-18,70.91666666666667,,70.91666666666667
330,2016-07-19,143.45833333333334,,143.45833333333334
330,2016-07-20,168.66666666666666,,168.66666666666666
330,2016-07-21,163.625,,163.625
330,2016-07-22,97.33333333333333,,97.33333333333333
330,2016-07-23,159.33333333333334,,159.33333333333334
330,2016-07-24,139.75,,139.75
330,2016-07-25,84.66666666666667,,84.66666666666667
330,2016-07-26,140.0,,140.0
330,2016-07-27,155.0,,155.0
330,2016-07-28,102.08333333333333,,102.08333333333333
330,2016-07-29,153.58333333333334,,153.58333333333334
330,2016-07-30,47.166666666666664,,47.166666666666664
330,2016-07-31,90.54166666666667,,90.54166666666667
330,2016-08-01,137.79166666666666,,137.79166666666666
330,2016-08-02,149.70833333333334,,149.70833333333334
330,2016-08-03,87.45833333333333,,87.45833333333333
330,2016-08-04,143.54166666666666,,143.54166666666666
330,2016-08-05,130.54166666666666,,130.54166666666666
330,2016-08-06,134.41666666666666,,134.41666666666666
330,2016-08-07,147.91666666666666,,147.91666666666666
330,2016-08-08,167.5,,167.5
330,2016-08-09,151.04166666666666,,151.04166666666666
330,2016-08-10,93.79166666666667,,93.79166666666667
330,2016-08-11,110.54166666666667,,110.54166666666667
330,2016-08-12,119.125,,119.125
330,2016-08-13,103.41666666666667,,103.41666666666667
330,2016-08-14,61.875,,61.875
330,2016-08-15,72.75,,72.75
330,2016-08-16,90.83333333333333,,90.83333333333333
330,2016-08-17,128.66666666666666,,128.66666666666666
330,2016-08-18,111.45833333333333,,111.45833333333333
330,2016-08-19,158.0,,158.0
330,2016-08-20,127.79166666666667,,127.79166666666667
330,2016-08-21,35.333333333333336,,35.333333333333336
330,2016-08-22,143.625,,143.625
330,2016-08-23,148.0,,148.0
330,2016-08-24,151.75,,151.75
330,2016-08-25,83.83333333333333,,83.83333333333333
330,2016-08-26,131.54166666666666,,131.54166666666666
330,2016-08-27,150.08333333333334,,150.08333333333334
330,2016-08-28,103.95833333333333,,103.95833333333333
330,2016-08-29,140.54166666666666,,140.54166666666666
330,2016-08-30,146.125,,146.125
330,2016-08-31,48.333333333333336,,48.333333333333336
330,2016-09-01,133.20833333333334,,133.20833333333334
330,2016-09-02,151.875,,151.875
330,2016-09-03,147.54166666666666,,147.54166666666666
330,2016-09-04,143.29166666666666,,143.29166666666666
330,2016-09-05,146.20833333333334,,146.20833333333334
330,2016-09-06,146.41666666666666,,146.41666666666666
330,2016-09-07,130.41666666666666,,130.41666666666666
330,2016-09-08,83.58333333333333,,83.58333333333333
330,2016-09-09,60.791666666666664,,60.791666666666664
330,2016-09-10,98.91666666666667,,98.91666666666667
330,2016-09-11,130.20833333333334,,130.20833333333334
330,2016-09-12,132.66666666666666,,132.66666666666666
330,2016-09-13,136.625,,136.625
330,2016-09-14,55.541666666666664,,55.541666666666664
330,2016-09-15,147.58333333333334,,147.58333333333334
330,2016-09-16,138.33333333333334,,138.33333333333334
330,2016-09-17,63.916666666666664,,63.916666666666664
330,2016-09-18,86.95833333333333,,86.95833333333333
330,2016-09-19,102.91666666666667,,102.91666666666667
330,2016-09-20,131.95833333333334,,131.95833333333334
330,2016-09-21,134.125,,134.125
330,2016-09-22,128.91666666666666,,128.91666666666666
330,2016-09-23,76.58333333333333,,76.58333333333333
330,2016-09-24,122.875,,122.875
330,2016-09-25,135.20833333333334,,135.20833333333334
330,2016-09-26,108.5,,108.5
330,2016-09-27,125.29166666666667,,125.29166666666667
330,2016-09-28,120.70833333333333,,120.70833333333333
330,2016-09-29,18.375,,18.375
330,2016-09-30,39.708333333333336,,39.708333333333336
330,2016-10-01,30.333333333333332,,30.333333333333332
330,2016-10-02,61.375,,61.375
330,2016-10-03,67.04166666666667,,67.04166666666667
330,2016-10-04,30.291666666666668,,30.291666666666668
330,2016-10-05,114.54166666666667,,114.54166666666667
330,2016-10-06,116.5,,116.5
330,2016-10-07,102.125,,102.125
330,2016-10-08,14.875,,14.875
330,2016-10-09,86.66666666666667,,86.66666666666667
330,2016-10-10,99.95833333333333,,99.95833333333333
330,2016-10-11,108.125,,108.125
330,2016-10-12,112.70833333333333,,112.70833333333333
330,2016-10-13,35.333333333333336,,35.333333333333336
330,2016-10-14,115.375,,115.375
330,2016-10-15,112.5,,112.5
330,2016-10-16,52.583333333333336,,52.583333333333336
330,2016-10-17,29.416666666666668,,29.416666666666668
330,2016-10-18,100.29166666666667,,100.29166666666667
330,2016-10-19,65.66666666666667,,65.66666666666667
330,2016-10-20,20.666666666666668,,20.666666666666668
330,2016-10-21,1.6666666666666667,,1.6666666666666667
330,2016-10-22,7.208333333333333,,7.208333333333333
330,2016-10-23,30.708333333333332,,30.708333333333332
330,2016-10-24,31.458333333333332,,31.458333333333332
330,2016-10-25,36.541666666666664,,36.541666666666664
330,2016-10-26,35.0,,35.0
330,2016-10-27,1.2083333333333333,,1.2083333333333333
330,2016-10-28,35.333333333333336,,35.333333333333336
330,2016-10-29,44.25,,44.25
330,2016-10-30,7.375,,7.375
330,2016-10-31,41.875,,41.875
330,2016-11-01,83.95833333333333,,83.95833333333333
330,2016-11-02,49.125,,49.125
330,2016-11-03,18.083333333333332,,18.083333333333332
330,2016-11-04,61.708333333333336,,61.708333333333336
330,2016-11-05,36.0,,36.0
330,2016-11-06,69.0,,69.0
330,2016-11-07,84.20833333333333,,84.20833333333333
330,2016-11-08,76.125,,76.125
330,2016-11-09,1.9583333333333333,,1.9583333333333333
330,2016-11-10,80.66666666666667,,80.66666666666667
330,2016-11-11,19.291666666666668,,19.291666666666668
330,2016-11-12,77.625,,77.625
330,2016-11-13,75.08333333333333,,75.08333333333333
330,2016-11-14,72.125,,72.125
330,2016-11-15,43.666666666666664,,43.666666666666664
330,2016-11-16,51.375,,51.375
330,2016-11-17,23.458333333333332,,23.458333333333332
330,2016-11-18,59.833333333333336,,59.833333333333336
330,2016-11-19,54.0,,54.0
330,2016-11-20,11.166666666666666,,11.166666666666666
330,2016-11-21,0.0,,0.0
330,2016-11-22,0.0,,0.0
330,2016-11-23,1.0,,1.0
330,2016-11-24,0.16666666666666666,,0.16666666666666666
330,2016-11-25,17.166666666666668,,17.166666666666668
330,2016-11-26,9.916666666666666,,9.916666666666666
330,2016-11-27,18.625,,18.625
330,2016-11-28,61.166666666666664,,61.166666666666664
330,2016-11-29,1.125,,1.125
330,2016-11-30,6.708333333333333,,6.708333333333333
330,2016-12-01,12.0,,12.0
330,2016-12-02,14.25,,14.25
330,2016-12-03,9.416666666666666,,9.416666666666666
330,2016-12-04,28.583333333333332,,28.583333333333332
330,2016-12-05,20.083333333333332,,20.083333333333332
330,2016-12-06,23.166666666666668,,23.166666666666668
330,2016-12-07,40.5,,40.5
330,2016-12-08,11.625,,11.625
330,2016-12-09,1.75,,1.75
330,2016-12-10,4.5,,4.5
330,2016-12-11,3.75,,3.75
330,2016-12-12,1.3333333333333333,,1.3333333333333333
330,2016-12-13,17.875,,17.875
330,2016-12-14,27.583333333333332,,27.583333333333332
330,2016-12-15,16.041666666666668,,16.041666666666668
330,2016-12-16,0.9583333333333334,,0.9583333333333334
330,2016-12-17,0.0,,0.0
330,2016-12-18,13.416666666666666,,13.416666666666666
330,2016-12-19,43.125,,43.125
330,2016-12-20,37.375,,37.375
330,2016-12-21,35.791666666666664,,35.791666666666664
330,2016-12-22,0.7083333333333334,,0.7083333333333334
330,2016-12-23,38.083333333333336,,38.083333333333336
330,2016-12-24,1.8333333333333333,,1.8333333333333333
330,2016-12-25,15.833333333333334,,15.833333333333334
330,2016-12-26,7.0,,7.0
330,2016-12-27,18.083333333333332,,18.083333333333332
330,2016-12-28,2.3333333333333335,,2.3333333333333335
330,2016-12-29,9.125,,9.125
330,2016-12-30,13.375,,13.375
330,2016-12-31,24.625,,24.625
330,2017-01-01,55.291666666666664,,55.291666666666664
330,2017-01-02,2.5,,2.5
330,2017-01-03,2.125,,2.125
330,2017-01-04,26.25,,26.25
330,2017-01-05,18.875,,18.875
330,2017-01-06,8.791666666666666,,8.791666666666666
330,2017-01-07,21.5,,21.5
330,2017-01-08,29.75,,29.75
330,2017-01-09,24.125,,24.125
330,2017-01-10,1.1666666666666667,,1.1666666666666667
330,2017-01-11,46.208333333333336,,46.208333333333336
330,2017-01-12,2.5,,2.5
330,2017-01-13,39.166666666666664,,39.166666666666664
330,2017-01-14,9.833333333333334,,9.833333333333334
330,2017-01-15,3.6666666666666665,,3.6666666666666665
330,2017-01-16,57.25,,57.25
330,2017-01-17,1.9583333333333333,,1.9583333333333333
330,2017-01-18,1.7083333333333333,,1.7083333333333333
330,2017-01-19,11.083333333333334,,11.083333333333334
330,2017-01-20,11.625,,11.625
330,2017-01-21,58.833333333333336,,58.833333333333336
330,2017-01-22,46.833333333333336,,46.833333333333336
330,2017-01-23,8.75,,8.75
330,2017-01-24,0.4583333333333333,,0.4583333333333333
330,2017-01-25,4.875,,4.875
330,2017-01-26,17.541666666666668,,17.541666666666668
330,2017-01-27,15.875,,15.875
330,2017-01-28,12.291666666666666,,12.291666666666666
330,2017-01-29,28.166666666666668,,28.166666666666668
330,2017-01-30,32.833333333333336,,32.833333333333336
330,2017-01-31,3.8333333333333335,,3.8333333333333335
330,2017-02-01,60.5,,60.5
330,2017-02-02,26.166666666666668,,26.166666666666668
330,2017-02-03,25.0,,25.0
330,2017-02-04,83.70833333333333,,83.70833333333333
330,2017-02-05,17.958333333333332,,17.958333333333332
330,2017-02-06,47.125,,47.125
330,2017-02-07,3.0833333333333335,,3.0833333333333335
330,2017-02-08,30.166666666666668,,30.166666666666668
330,2017-02-09,0.2916666666666667,,0.2916666666666667
330,2017-02-10,0.5416666666666666,,0.5416666666666666
330,2017-02-11,8.375,,8.375
330,2017-02-12,2.3333333333333335,,2.3333333333333335
330,2017-02-13,13.375,,13.375
330,2017-02-14,91.5,,91.5
330,2017-02-15,24.041666666666668,,24.041666666666668
330,2017-02-16,0.5833333333333334,,0.5833333333333334
330,2017-02-17,52.541666666666664,,52.541666666666664
330,2017-02-18,83.875,,83.875
330,2017-02-19,89.45833333333333,,89.45833333333333
330,2017-02-20,104.70833333333333,,104.70833333333333
330,2017-02-21,57.416666666666664,,57.416666666666664
330,2017-02-22,51.958333333333336,,51.958333333333336
330,2017-02-23,79.29166666666667,,79.29166666666667
330,2017-02-24,72.70833333333333,,72.70833333333333
330,2017-02-25,15.0,,15.0
330,2017-02-26,41.083333333333336,,41.083333333333336
330,2017-02-27,85.125,,85.125
330,2017-02-28,68.45833333333333,,68.45833333333333
330,2017-03-01,32.75,,32.75
330,2017-03-02,72.33333333333333,,72.33333333333333
330,2017-03-03,35.375,,35.375
330,2017-03-04,16.416666666666668,,16.416666666666668
330,2017-03-05,83.16666666666667,,83.16666666666667
330,2017-03-06,60.791666666666664,,60.791666666666664
330,2017-03-07,22.458333333333332,,22.458333333333332
330,2017-03-08,76.125,,76.125
330,2017-03-09,86.375,,86.375
330,2017-03-10,45.083333333333336,,45.083333333333336
330,2017-03-11,16.25,,16.25
330,2017-03-12,54.291666666666664,,54.291666666666664
330,2017-03-13,70.29166666666667,,70.29166666666667
330,2017-03-14,0.0,,0.0
330,2017-03-15,0.25,,0.25
330,2017-03-16,22.25,,22.25
330,2017-03-17,47.125,,47.125
330,2017-03-18,7.875,,7.875
330,2017-03-19,52.875,,52.875
330,2017-03-20,38.875,,38.875
330,2017-03-21,79.20833333333333,,79.20833333333333
330,2017-03-22,91.875,,91.875
330,2017-03-23,124.45833333333333,,124.45833333333333
330,2017-03-24,49.375,,49.375
330,2017-03-25,14.541666666666666,,14.541666666666666
330,2017-03-26,30.458333333333332,,30.458333333333332
330,2017-03-27,50.208333333333336,,50.208333333333336
330,2017-03-28,24.0,,24.0
330,2017-03-29,110.29166666666667,,110.29166666666667
330,2017-03-30,51.791666666666664,,51.791666666666664
330,2017-03-31,14.291666666666666,,14.291666666666666
330,2017-04-01,24.833333333333332,,24.833333333333332
330,2017-04-02,93.0,,93.0
330,2017-04-03,77.75,,77.75
330,2017-04-04,48.916666666666664,,48.916666666666664
330,2017-04-05,73.58333333333333,,73.58333333333333
330,2017-04-06,13.125,,13.125
330,2017-04-07,51.625,,51.625
330,2017-04-08,125.91666666666667,,125.91666666666667
330,2017-04-09,127.79166666666667,,127.79166666666667
330,2017-04-10,110.95833333333333,,110.95833333333333
330,2017-04-11,59.458333333333336,,59.458333333333336
330,2017-04-12,84.5,,84.5
330,2017-04-13,100.16666666666667,,100.16666666666667
330,2017-04-14,136.95833333333334,,136.95833333333334
330,2017-04-15,77.5,,77.5
330,2017-04-16,86.95833333333333,,86.95833333333333
330,2017-04-17,131.95833333333334,,131.95833333333334
330,2017-04-18,141.875,,141.875
330,2017-04-19,36.5,,36.5
330,2017-04-20,21.458333333333332,,21.458333333333332
330,2017-04-21,62.041666666666664,,62.041666666666664
330,2017-04-22,36.291666666666664,,36.291666666666664
330,2017-04-23,132.75,,132.75
330,2017-04-24,137.29166666666666,,137.29166666666666
330,2017-04-25,50.291666666666664,,50.291666666666664
330,2017-04-26,127.45833333333333,,127.45833333333333
330,2017-04-27,109.41666666666667,,109.41666666666667
330,2017-04-28,124.375,,124.375
330,2017-04-29,22.458333333333332,,22.458333333333332
330,2017-04-30,70.54166666666667,,70.54166666666667
330,2017-05-01,82.83333333333333,,82.83333333333333
330,2017-05-02,59.125,,59.125
330,2017-05-03,94.16666666666667,,94.16666666666667
330,2017-05-04,47.416666666666664,,47.416666666666664
330,2017-05-05,24.25,,24.25
330,2017-05-06,32.75,,32.75
330,2017-05-07,47.958333333333336,,47.958333333333336
330,2017-05-08,74.16666666666667,,74.16666666666667
330,2017-05-09,116.20833333333333,,116.20833333333333
330,2017-05-10,136.95833333333334,,136.95833333333334
330,2017-05-11,109.25,,109.25
330,2017-05-12,95.08333333333333,,95.08333333333333
330,2017-05-13,33.375,,33.375
330,2017-05-14,75.5,,75.5
330,2017-05-15,89.16666666666667,,89.16666666666667
330,2017-05-16,84.20833333333333,,84.20833333333333
330,2017-05-17,129.875,,129.875
330,2017-05-18,108.08333333333333,,108.08333333333333
330,2017-05-19,84.91666666666667,,84.91666666666667
330,2017-05-20,122.83333333333333,,122.83333333333333
330,2017-05-21,68.79166666666667,,68.79166666666667
330,2017-05-22,57.125,,57.125
330,2017-05-23,123.5,,123.5
330,2017-05-24,132.95833333333334,,132.95833333333334
330,2017-05-25,34.625,,34.625
330,2017-05-26,45.083333333333336,,45.083333333333336
330,2017-05-27,51.916666666666664,,51.916666666666664
330,2017-05-28,91.0,,91.0
330,2017-05-29,72.125,,72.125
330,2017-05-30,58.958333333333336,,58.958333333333336
330,2017-05-31,87.29166666666667,,87.29166666666667
330,2017-06-01,105.04166666666667,,105.04166666666667
330,2017-06-02,103.16666666666667,,103.16666666666667
330,2017-06-03,131.375,,131.375
330,2017-06-04,42.208333333333336,,42.208333333333336
330,2017-06-05,52.291666666666664,,52.291666666666664
330,2017-06-06,53.083333333333336,,53.083333333333336
330,2017-06-07,130.25,,130.25
330,2017-06-08,118.41666666666667,,118.41666666666667
330,2017-06-09,115.75,,115.75
330,2017-06-10,98.29166666666667,,98.29166666666667
330,2017-06-11,131.0,,131.0
330,2017-06-12,115.625,,115.625
330,2017-06-13,120.29166666666667,,120.29166666666667
330,2017-06-14,170.20833333333334,,170.20833333333334
330,2017-06-15,91.29166666666667,,91.29166666666667
330,2017-06-16,95.79166666666667,,95.79166666666667
330,2017-06-17,154.54166666666666,,154.54166666666666
330,2017-06-18,124.875,,124.875
330,2017-06-19,51.333333333333336,,51.333333333333336
330,2017-06-20,142.375,,142.375
330,2017-06-21,135.79166666666666,,135.79166666666666
330,2017-06-22,138.70833333333334,,138.70833333333334
330,2017-06-23,59.5,,59.5
330,2017-06-24,149.41666666666666,,149.41666666666666
330,2017-06-25,109.79166666666667,,109.79166666666667
330,2017-06-26,99.08333333333333,,99.08333333333333
330,2017-06-27,113.83333333333333,,113.83333333333333
330,2017-06-28,132.66666666666666,,132.66666666666666
330,2017-06-29,113.16666666666667,,113.16666666666667
330,2017-06-30,91.41666666666667,,91.41666666666667
330,2017-07-01,80.125,,80.125
330,2017-07-02,126.20833333333333,,126.20833333333333
330,2017-07-03,165.70833333333334,,165.70833333333334
330,2017-07-04,173.91666666666666,,173.91666666666666
330,2017-07-05,150.91666666666666,,150.91666666666666
330,2017-07-06,83.91666666666667,,83.91666666666667
330,2017-07-07,113.33333333333333,,113.33333333333333
330,2017-07-08,123.20833333333333,,123.20833333333333
330,2017-07-09,124.29166666666667,,124.29166666666667
330,2017-07-10,127.33333333333333,,127.33333333333333
330,2017-07-11,134.0,,134.0
330,2017-07-12,84.625,,84.625
330,2017-07-13,50.791666666666664,,50.791666666666664
330,2017-07-14,99.41666666666667,,99.41666666666667
330,2017-07-15,69.0,,69.0
330,2017-07-16,141.58333333333334,,141.58333333333334
330,2017-07-17,85.75,,85.75
330,2017-07-18,143.0,,143.0
330,2017-07-19,150.29166666666666,,150.29166666666666
330,2017-07-20,85.45833333333333,,85.45833333333333
330,2017-07-21,145.25,,145.25
330,2017-07-22,68.33333333333333,,68.33333333333333
330,2017-07-23,83.91666666666667,,83.91666666666667
330,2017-07-24,83.70833333333333,,83.70833333333333
330,2017-07-25,64.125,,64.125
330,2017-07-26,112.16666666666667,,112.16666666666667
330,2017-07-27,60.041666666666664,,60.041666666666664
330,2017-07-28,114.875,,114.875
330,2017-07-29,153.33333333333334,,153.33333333333334
330,2017-07-30,162.75,,162.75
330,2017-07-31,158.375,,158.375
330,2017-08-01,147.66666666666666,,147.66666666666666
330,2017-08-02,123.04166666666667,,123.04166666666667
330,2017-08-03,148.08333333333334,,148.08333333333334
330,2017-08-04,120.79166666666667,,120.79166666666667
330,2017-08-05,92.66666666666667,,92.66666666666667
330,2017-08-06,134.875,,134.875
330,2017-08-07,124.08333333333333,,124.08333333333333
330,2017-08-08,132.45833333333334,,132.45833333333334
330,2017-08-09,141.33333333333334,,141.33333333333334
330,2017-08-10,132.95833333333334,,132.95833333333334
330,2017-08-11,70.45833333333333,,70.45833333333333
330,2017-08-12,105.33333333333333,,105.33333333333333
330,2017-08-13,144.04166666666666,,144.04166666666666
330,2017-08-14,124.75,,124.75
330,2017-08-15,114.66666666666667,,114.66666666666667
330,2017-08-16,141.79166666666666,,141.79166666666666
330,2017-08-17,139.125,,139.125
330,2017-08-18,81.625,,81.625
330,2017-08-19,74.375,,74.375
330,2017-08-20,138.5,,138.5
330,2017-08-21,87.125,,87.125
330,2017-08-22,94.41666666666667,,94.41666666666667
330,2017-08-23,129.08333333333334,,129.08333333333334
330,2017-08-24,109.83333333333333,,109.83333333333333
330,2017-08-25,141.5,,141.5
330,2017-08-26,147.45833333333334,,147.45833333333334
330,2017-08-27,139.04166666666666,,139.04166666666666
330,2017-08-28,103.04166666666667,,103.04166666666667
330,2017-08-29,91.70833333333333,,91.70833333333333
330,2017-08-30,126.16666666666667,,126.16666666666667
330,2017-08-31,76.125,,76.125
330,2017-09-01,132.25,,132.25
330,2017-09-02,106.20833333333333,,106.20833333333333
330,2017-09-03,32.833333333333336,,32.833333333333336
330,2017-09-04,132.95833333333334,,132.95833333333334
330,2017-09-05,11.791666666666666,,11.791666666666666
330,2017-09-06,46.458333333333336,,46.458333333333336
330,2017-09-07,85.125,,85.125
330,2017-09-08,61.458333333333336,,61.458333333333336
330,2017-09-09,53.708333333333336,,53.708333333333336
330,2017-09-10,110.83333333333333,,110.83333333333333
330,2017-09-11,123.58333333333333,,123.58333333333333
330,2017-09-12,120.25,,120.25
330,2017-09-13,78.41666666666667,,78.41666666666667
330,2017-09-14,34.25,,34.25
330,2017-09-15,129.08333333333334,,129.08333333333334
330,2017-09-16,118.375,,118.375
330,2017-09-17,106.33333333333333,,106.33333333333333
330,2017-09-18,118.33333333333333,,118.33333333333333
330,2017-09-19,115.25,,115.25
330,2017-09-20,124.08333333333333,,124.08333333333333
330,2017-09-21,90.54166666666667,,90.54166666666667
330,2017-09-22,86.125,,86.125
330,2017-09-23,122.04166666666667,,122.04166666666667
330,2017-09-24,117.20833333333333,,117.20833333333333
330,2017-09-25,115.375,,115.375
330,2017-09-26,103.45833333333333,,103.45833333333333
330,2017-09-27,93.04166666666667,,93.04166666666667
330,2017-09-28,48.083333333333336,,48.083333333333336
330,2017-09-29,76.79166666666667,,76.79166666666667
330,2017-09-30,49.791666666666664,,49.791666666666664
330,2017-10-01,126.5,,126.5
330,2017-10-02,121.95833333333333,,121.95833333333333
330,2017-10-03,120.08333333333333,,120.08333333333333
330,2017-10-04,105.91666666666667,,105.91666666666667
330,2017-10-05,93.20833333333333,,93.20833333333333
330,2017-10-06,51.708333333333336,,51.708333333333336
330,2017-10-07,59.041666666666664,,59.041666666666664